Location: Tamazert
(32.6352°N, 5.2072°W)
Time: 14:56:00
(UTC+00:00)

Vanguard 3 - Pass Details

Date: 09 October 2022
Orbit: 509 x 3255 km, 33.3° (Epoch: 08 December)

Event Time Altitude Azimuth Distance (km) Brightness Sun altitude
Rises 08:29:59 0° 270° (W) 2,599 9.3 25.2°
Reaches altitude 10° 08:31:59 10° 271° (W) 1,736 8.4 25.6°
Maximum altitude 08:35:43 80° 359° (N) 594 6.9 26.3°
Drops below altitude 10° 08:40:43 10° 87° (E) 2,311 10.6 27.2°
Sets 08:43:46 0° 88° (E) 3,577 11.3 27.8°
